78NY weather

Flying F Airport
Pendleton, New York, United States

Public forecast

Using degrees Fahrenheit for public forecast. Weather courtesy of forecast.io.

METAR (pilot weather report)

Closest report is Niagara Falls International Airport, 6.5 nm (12.0 km) WNW. Retrieved 2019/06/20 19:53 UTC (34 minutes ago):

KIAG 201953Z 03007KT 10SM OVC023 21/17 A2957 RMK AO2 SLP013 T02060167

TAF (pilot weather forecast)

Closest forecast is Niagara Falls International Airport, 6.5 nm (12.0 km) WNW. Retrieved 2019/06/20 18:45 UTC (2 hours ago):

TAF KIAG 201743Z 2018/2118 03008KT P6SM VCSH OVC012 FM202200 03006KT 6SM BR OVC012 TEMPO 2022/2023 4SM -SHRA BR OVC009 FM202300 03006KT 6SM -SHRA BR OVC007 FM210100 02006KT 6SM -SHRA BR OVC015 FM210400 36007KT P6SM VCSH OVC015 FM210600 35006KT P6SM OVC035